Location: Sangrey
(48.2845°N, 109.8206°W)
Time: 23:26:55
(UTC+00:00)

Envisat - Pass Details

Date: 30 January 2022
Orbit: 764 x 765 km, 98.2° (Epoch: 22 May)

Event Time Altitude Azimuth Distance (km) Brightness Sun altitude
Rises 13:27:50 0° 5° (N) 3,243 6.2 -13.8°
Reaches altitude 10° 13:30:25 10° 354° (N) 2,313 5.3 -13.4°
Maximum altitude 13:34:40 27° 297° (WNW) 1,430 3.9 -12.7°
Drops below altitude 10° 13:38:54 10° 241° (WSW) 2,301 5.0 -12.0°
Sets 13:41:28 0° 229° (SW) 3,223 5.9 -11.6°
